Weather History for Ely, NV

Change the Weather History Date:

Saturday, October 29, 2011

  Actual Average Record
Temperature  
Mean Temperature 44 °F 41 °F  
Max Temperature 65 °F 57 °F 74 °F (2003)
Min Temperature 23 °F 25 °F 1 °F (1971)
Degree Days  
Heating Degree Days 21 24  
Month to date heating degree days 506 561  
Since 1 July heating degree days 644 877  
Cooling Degree Days 0 0  
Month to date cooling degree days 0 0  
Year to date cooling degree days 259 218  
Moisture  
Dew Point 13 °F    
Average Humidity 36    
Maximum Humidity 60    
Minimum Humidity 12    
Precipitation  
Precipitation 0.00 in 0.03 in 0.65 in (1998)
Month to date precipitation 1.16 0.93  
Year to date precipitation 11.42 8.40  
Snow  
Snow 0.00 in 0.10 in 3.30 in (1991)
Month to date snowfall 2.6 2.7  
Since 1 July snowfall 2.6 3.1  
Since 1 September snowfall 2.6 3.1  
Snow Depth 0.00 in    
Sea Level Pressure  
Sea Level Pressure 30.21 in    
Wind  
Wind Speed 8 mph (SSE)    
Max Wind Speed 23 mph    
Max Gust Speed 59 mph    
Visibility 10 miles    
Events      
T = Trace of Precipitation, MM = Missing Value Source: NWS Daily Summary

Daily Weather History Graph

Daily Weather History Graph

Search for Another Location

Airport:

Trip Planner

Search our weather history database for the weather conditions in past years. The results will help you decide how hot, cold, wet, or windy it might be!

Date:

Astronomy

Oct. 29, 2011 Rise Set
Actual Time 7:03 AM PDT 5:41 PM PDT
Civil Twilight 6:36 AM PDT 6:09 PM PDT
Nautical Twilight 6:04 AM PDT 6:40 PM PDT
Astronomical Twilight 5:33 AM PDT 7:12 PM PDT
Moon 10:28 AM PDT (10/29) 8:11 PM PDT (10/29)
Length of Visible Light 11h 33m
Length of Day
10h 38m
Waxing Crescent, 12% of the Moon is Illuminated
Oct 29
Waxing Crescent
Nov 2
First Quarter
Nov 10
Full
Nov 18
Last Quarter
Nov 24
New

Hourly Weather History & Observations

Time (PDT) Temp. Windchill Dew Point Humidity Pressure Visibility Wind Dir Wind Speed Gust Speed Precip Events Conditions
12:53 AM 28.0 °F 18.1 °F 12.0 °F 51% 30.18 in 10.0 mi South 11.5 mph - N/A   Clear
1:53 AM 26.1 °F 18.4 °F 12.9 °F 58% 30.19 in 10.0 mi South 6.9 mph - N/A   Clear
2:53 AM 26.1 °F 19.4 °F 12.0 °F 55% 30.17 in 10.0 mi South 5.8 mph - N/A   Clear
3:53 AM 26.1 °F 16.2 °F 12.0 °F 55% 30.17 in 10.0 mi SSE 10.4 mph - N/A   Clear
4:53 AM 24.1 °F 13.7 °F 12.0 °F 60% 30.20 in 10.0 mi South 10.4 mph - N/A   Clear
6:53 AM 23.0 °F 11.1 °F 10.9 °F 60% 30.28 in 10.0 mi South 12.7 mph - N/A   Clear
7:53 AM 28.0 °F 18.1 °F 12.9 °F 53% 30.30 in 10.0 mi SSE 11.5 mph - N/A   Clear
8:53 AM 37.9 °F 30.5 °F 15.1 °F 39% 30.28 in 10.0 mi South 11.5 mph - N/A   Clear
9:53 AM 50.0 °F - 16.0 °F 26% 30.25 in 10.0 mi South 3.5 mph - N/A   Clear
10:53 AM 57.0 °F - 10.9 °F 16% 30.21 in 10.0 mi NNE 6.9 mph - N/A   Clear
11:53 AM 61.0 °F - 10.9 °F 14% 30.18 in 10.0 mi NNE 8.1 mph - N/A   Clear
12:53 PM 63.0 °F - 10.0 °F 13% 30.15 in 10.0 mi NNE 9.2 mph - N/A   Clear
1:53 PM 64.0 °F - 10.0 °F 12% 30.14 in 10.0 mi NNW 8.1 mph - N/A   Clear
2:53 PM 64.0 °F - 10.0 °F 12% 30.14 in 10.0 mi NE 8.1 mph - N/A   Clear
3:53 PM 63.0 °F - 10.0 °F 13% 30.14 in 10.0 mi NW 13.8 mph - N/A   Clear
4:53 PM 57.9 °F - 14.0 °F 18% 30.19 in 10.0 mi NW 9.2 mph - N/A   Clear
5:53 PM 52.0 °F - 14.0 °F 22% 30.23 in 10.0 mi NW 3.5 mph - N/A   Clear
6:53 PM 46.9 °F - 16.0 °F 29% 30.27 in 10.0 mi Calm Calm - N/A   Clear
7:53 PM 37.9 °F 34.4 °F 16.0 °F 41% 30.30 in 10.0 mi Variable 4.6 mph - N/A   Clear
8:53 PM 36.0 °F 30.3 °F 17.1 °F 46% 30.27 in 10.0 mi SSE 6.9 mph - N/A   Clear
9:53 PM 32.0 °F 26.4 °F 17.1 °F 54% 30.25 in 10.0 mi SSE 5.8 mph - N/A   Clear
10:53 PM 33.1 °F 26.1 °F 16.0 °F 50% 30.22 in 10.0 mi SSE 8.1 mph - N/A   Clear
11:53 PM 30.0 °F 24.1 °F 16.0 °F 56% 30.22 in 10.0 mi SW 5.8 mph - N/A   Clear